Location: Newark
(49.4900°N, 20.6656°E)
Time: 17:25:17
(UTC+00:00)

STARLINK-1724 - Pass Details

Date: 24 September 2020
Orbit: 378 x 381 km, 53.0° (Epoch: 30 October)

Event Time Altitude Azimuth Distance (km) Brightness Sun altitude
Exits shadow 01:31:32 21° 58° (ENE) 989 5.6 -27.6°
Drops below altitude 10° 01:32:50 10° 67° (ENE) 1,482 6.7 -27.4°
Sets 01:34:58 0° 73° (ENE) 2,343 8.0 -27.1°
